FENGYUN 1C DEB

Satellite information

Favourite Embed

Satellite Type and Status

DEBRISIN ORBIT

Key statistics

Satellite FENGYUN 1C DEB at a glance.

Uptime

9555

Days in orbit

Revolutions

≈ 13.6

Per day

Orbit

SSO

Sun Synchronous Orbit

Inclination

98.7

Latest

Satellite identification and parameters

Extended collection of information and parameters for FENGYUN 1C DEB.

Object identification

Identified? True

Debris? True

Object name: FENGYUN 1C DEB

International designator: 1999-025GB

Object number (NORAD): 29881

Object ID (CCSDS): 29881

Country: PEOPLES REPUBLIC OF CHINA (PRC)

Current information (Y/N): Y

RCS size: SMALL

Orbital parameters

Period: 105.967 minutes

Inclination: 98.7023 deg

SMA: 7417.791 km

Apoapsis: 1258.51 km

Periapsis: 820.801 km

RAAN: 176.6113 deg

Eccentricy: 0.029504

Argument of periapsis: 127.6651 deg

Mean anomaly: 301.3053 deg

Mean motion: 13.58910678 rev/day

Mean motion (dot): 0.00001375 rev/day2

B* drag term: 0.0014456 1/REarth

Two-line elements (TLE)

Creation date: July 6, 2025, 6:56 a.m.

Reference frame: TEME

Reference center: EARTH

Epoch: July 5, 2025, 11:26 p.m. UTC

TLE line 0: 0 FENGYUN 1C DEB

TLE line 1: 1 29881U 99025GB 25186.97651317 .00001375 00000-0 14456-2 0 9992

TLE line 2: 2 29881 98.7023 176.6113 0295040 127.6651 301.3053 13.58910678910757

Live tracking on map

Real-time ground track for satellite FENGYUN 1C DEB.

In-orbit conjunctions

A list of the most updated potential collisions computed for object FENGYUN 1C DEB.

Target Orbit TCA Probability of collision Miss distance Type
CZ-6A DEB LEO 2025-01-12 23:28:43 0.0001521337 649.0 (m) DEBRIS

Associated space launch

Chinese polar orbiting meteorological satellite

FENGYUN 1C DEB was lifted into orbit during the mission ‘Long March 4B | Feng Yun 1C’, on board a Long March 4B space rocket.

The launch took place on May 10, 1999, 1:33 a.m. from Launch Complex 7.

For more information about the launch, click the button.

Launch to space Long March 4B | Feng Yun 1C
Long March 4B | Feng Yun 1C

Agency: N/A

Status: Launch Successful

Launch date: May 10, 1999, 1:33 a.m. UTC

Rocket: Long March 4B

Launch pad: Launch Complex 7

Location: Taiyuan Satellite Launch Center, People's Republic of China

...

Latest news about this satellite

There are no fresh news available about this satellite. Check back as we update our databases every day.


Newsletter sign-up

Weekly statistics, charts and insights to help you stay on top of the space industry.